TJS-2 (41911 NORAD) Tracking and Keplerian Element Data

This shows tracking and keplerian element data for the satellite.

Feedback or suggestion? Click here.




ElementValue
Catalog41911
NameTJS-2
Epoch Orbit1744
Epoch Day269.90046094
Epoch Year2021
RAAN284.5625
Inclination0.3025
Eccentricity0.0005804
Argument of Perigee265.7229
Mean Anonmoly206.3163
Mean Motion1.00274323
Decay Rate-9E-08
L11 41911U 17001A 21269.90046094 -.00000009 00000-0 00000-0 0 9997
L22 41911 0.3025 284.5625 0005804 265.7229 206.3163 1.00274323 17449

Live tracking and technical data element details for TJS-2 (NORAD 41911). TJS-2 can be tracked NOW for your location showing map with azimuth and elevation plus other details from your city location.

Track the satellite on the map from your city or location and see movement details for azimuth, elevation, latitude, longitude, range, height, and movement on the map or in text.







IsCatalogInMostPopularTable: catalog: 41911, numindb: 607
Update: records affected: 1



GetName: 41911 TJS-2

Hit Count: updated at: Tue, 28 Sep 2021 17:23:36 GMT